Back to catalog

FENGYUN 1C DEB

AlivePO
NORAD 31910·DEBRIS·🇨🇳 China

Launched May 10, 1999 from Taiyuan Satellite Launch Center

Loading…

Next Passes (next 24 hours)

TLE

AgingSource: Space-Track

Epoch: Sep 9, 2026, 06:16 UTC

1 31910U 99025CLM 26252.26133748  .00003332  00000-0  63862-3 0  9999
2 31910  97.6575 253.7961 0222403  35.0933 326.4687 14.49725696682863

Track FENGYUN 1C DEB in real time with AllMySat

Download on the App Store